Lander, WY

6:05 PM MDT on July 28, 2016 (GMT -0600)
South Pass

Weather History for KFWZ - November, 2012

Change the Weather History Date:

Saturday, November 24, 2012

  Actual Average (KLND) Record (KLND)
Temperature  
Mean Temperature 34 °F 26 °F  
Max Temperature 41 °F 38 °F 65 °F (1933)
Min Temperature 26 °F 15 °F -12 °F (1895)
Degree Days  
Heating Degree Days 32 39  
Month to date heating degree days 771  
Since 1 July heating degree days 1632  
Cooling Degree Days 0 0  
Month to date cooling degree days 0  
Year to date cooling degree days 472  
Moisture  
Dew Point 20 °F    
Average Humidity 59    
Maximum Humidity 86    
Minimum Humidity 33    
Precipitation  
Precipitation 0.00 in 0.03 in 0.53 in (1944)
Month to date precipitation 0.71  
Year to date precipitation 11.93  
Snow  
Snow - 0.40 in - ()
Month to date snowfall 10.4  
Since 1 July snowfall 22.9  
Since 1 September snowfall 22.9  
Snow Depth -    
Sea Level Pressure  
Sea Level Pressure 30.06 in    
Wind  
Wind Speed 8 mph ()    
Max Wind Speed 17 mph    
Max Gust Speed 25 mph    
Visibility 10.0 miles    
Events      
T = Trace of Precipitation, MM = Missing Value Source: Averaged Metar Reports

Daily Weather History Graph

Daily Weather History Graph

Search for Another Location

Airport or City:

Trip Planner

Search our weather history database for the weather conditions in past years. The results will help you decide how hot, cold, wet, or windy it might be!

Date:

Astronomy

Nov. 24, 2012 Rise Set
Actual Time 7:17 AM MST 4:45 PM MST
Civil Twilight 6:46 AM MST 5:16 PM MST
Nautical Twilight 6:12 AM MST 5:51 PM MST
Astronomical Twilight 5:38 AM MST 6:25 PM MST
Moon 2:35 PM MST (11/24) 3:34 AM MST (11/24)
Length of Visible Light 10h 29m
Length of Day
9h 27m
Waxing Gibbous, 87% of the Moon is Illuminated
Nov 24
Waxing Gibbous
Nov 28
Full
Dec 6
Last Quarter
Dec 13
New
Dec 19
First Quarter

Hourly Weather History & Observations

Time (MST) Temp. Windchill Dew Point Humidity Pressure Visibility Wind Dir Wind Speed Gust Speed Precip Events Conditions
12:15 AM 30.2 °F 21.9 °F 17.6 °F 60% 30.19 in 10.0 mi SSE 9.2 mph - N/A   Clear
12:35 AM 30.2 °F 20.2 °F 17.6 °F 60% 30.19 in 10.0 mi SSE 12.7 mph - N/A   Clear
12:55 AM 30.2 °F 21.3 °F 17.6 °F 60% 30.18 in 10.0 mi SSE 10.4 mph 18.4 mph N/A   Clear
1:35 AM 30.2 °F 25.4 °F 17.6 °F 60% 30.18 in 10.0 mi SW 4.6 mph - N/A   Clear
1:55 AM 28.4 °F 22.2 °F 17.6 °F 64% 30.17 in 10.0 mi SSW 5.8 mph - N/A   Clear
2:15 AM 30.2 °F 22.6 °F 17.6 °F 60% 30.18 in 10.0 mi South 8.1 mph - N/A   Clear
2:35 AM 28.4 °F 20.4 °F 17.6 °F 64% 30.17 in 10.0 mi SSW 8.1 mph - N/A   Clear
2:55 AM 28.4 °F 19.1 °F 17.6 °F 64% 30.17 in 10.0 mi South 10.4 mph - N/A   Clear
3:15 AM 28.4 °F 19.7 °F 17.6 °F 64% 30.16 in 10.0 mi South 9.2 mph - N/A   Clear
3:35 AM 28.4 °F 19.7 °F 17.6 °F 64% 30.13 in 10.0 mi South 9.2 mph 16.1 mph N/A   Clear
3:55 AM 30.2 °F 19.8 °F 17.6 °F 60% - 10.0 mi WSW 13.8 mph 19.6 mph N/A   Clear
4:15 AM 32.0 °F 22.5 °F 17.6 °F 55% - 10.0 mi WSW 12.7 mph 16.1 mph N/A   Clear
4:35 AM 32.0 °F 22.1 °F 15.8 °F 51% - 10.0 mi WSW 13.8 mph 21.9 mph N/A   Clear
4:55 AM 32.0 °F 22.1 °F 15.8 °F 51% 30.09 in 10.0 mi WSW 13.8 mph 24.2 mph N/A   Clear
5:15 AM 32.0 °F 27.5 °F 15.8 °F 51% 30.10 in 10.0 mi SW 4.6 mph - N/A   Clear
5:35 AM 28.4 °F 19.1 °F 17.6 °F 64% 30.11 in 10.0 mi ESE 10.4 mph - N/A   Clear
5:55 AM 26.6 °F 17.5 °F 17.6 °F 69% 30.11 in 10.0 mi South 9.2 mph - N/A   Clear
6:15 AM 28.4 °F 21.2 °F 17.6 °F 64% 30.10 in 10.0 mi South 6.9 mph - N/A   Clear
6:35 AM 28.4 °F 22.2 °F 17.6 °F 64% 30.09 in 10.0 mi SSW 5.8 mph - N/A   Clear
7:15 AM 26.6 °F 20.0 °F 17.6 °F 69% - 10.0 mi SSW 5.8 mph - N/A   Clear
7:35 AM 28.4 °F 20.4 °F 15.8 °F 59% - 10.0 mi South 8.1 mph - N/A   Clear
8:15 AM 30.2 °F 24.3 °F 14.0 °F 51% 30.09 in 10.0 mi South 5.8 mph - N/A   Clear
8:35 AM 32.0 °F - 12.2 °F 44% 30.09 in 10.0 mi Calm Calm - N/A   Clear
8:55 AM 33.8 °F 28.6 °F 12.2 °F 41% 30.09 in 10.0 mi ESE 5.8 mph - N/A   Clear
9:15 AM 32.0 °F 25.6 °F 15.8 °F 51% 30.09 in 10.0 mi South 6.9 mph - N/A   Clear
9:35 AM 32.0 °F 25.6 °F 15.8 °F 51% 30.10 in 10.0 mi SSE 6.9 mph - N/A   Clear
10:15 AM 30.2 °F 22.6 °F 19.4 °F 64% 30.10 in 10.0 mi South 8.1 mph - N/A   Clear
10:35 AM 30.2 °F 24.3 °F 19.4 °F 64% 30.10 in 10.0 mi South 5.8 mph - N/A   Clear
10:55 AM 30.2 °F 22.6 °F 21.2 °F 69% 30.10 in 10.0 mi South 8.1 mph - N/A   Clear
11:15 AM 32.0 °F 24.2 °F 21.2 °F 64% 30.09 in 10.0 mi South 9.2 mph - N/A   Clear
11:35 AM 32.0 °F 23.0 °F 21.2 °F 64% 30.08 in 10.0 mi SSE 11.5 mph - N/A   Clear
12:15 PM 41.0 °F 33.9 °F 14.0 °F 33% 30.05 in 10.0 mi WSW 12.7 mph - N/A   Clear
12:35 PM 41.0 °F 34.3 °F 15.8 °F 36% 30.05 in 10.0 mi WSW 11.5 mph 20.7 mph N/A   Clear
12:55 PM 41.0 °F 34.7 °F 17.6 °F 39% 30.05 in 10.0 mi SW 10.4 mph 20.7 mph N/A   Clear
1:15 PM 41.0 °F 33.9 °F 19.4 °F 42% 30.05 in 10.0 mi SW 12.7 mph 16.1 mph N/A   Clear
1:35 PM 41.0 °F 33.5 °F 17.6 °F 39% 30.04 in 10.0 mi WSW 13.8 mph 20.7 mph N/A   Clear
1:55 PM 41.0 °F 33.1 °F 17.6 °F 39% 30.04 in 10.0 mi WSW 15.0 mph 21.9 mph N/A   Clear
2:15 PM 41.0 °F 32.5 °F 17.6 °F 39% 30.03 in 10.0 mi WSW 17.3 mph 25.3 mph N/A   Clear
2:35 PM 41.0 °F 33.5 °F 17.6 °F 39% 30.03 in 10.0 mi WSW 13.8 mph 24.2 mph N/A   Clear
2:55 PM 41.0 °F 33.9 °F 17.6 °F 39% 30.02 in 10.0 mi WSW 12.7 mph 19.6 mph N/A   Clear
3:15 PM 41.0 °F 34.7 °F 17.6 °F 39% 30.02 in 10.0 mi WSW 10.4 mph 19.6 mph N/A   Clear
3:35 PM 41.0 °F 34.3 °F 17.6 °F 39% 30.02 in 10.0 mi West 11.5 mph 18.4 mph N/A   Clear
3:55 PM 41.0 °F 35.2 °F 17.6 °F 39% 30.02 in 10.0 mi West 9.2 mph - N/A   Clear
4:15 PM 41.0 °F 35.8 °F 17.6 °F 39% 30.02 in 10.0 mi WSW 8.1 mph - N/A   Mostly Cloudy
4:35 PM 39.2 °F - 19.4 °F 45% 30.02 in 10.0 mi Calm Calm - N/A   Overcast
4:55 PM 37.4 °F - 17.6 °F 45% 30.02 in 10.0 mi Calm Calm - N/A   Overcast
5:15 PM 37.4 °F 32.8 °F 19.4 °F 48% 30.02 in 10.0 mi West 5.8 mph - N/A   Overcast
5:35 PM 37.4 °F 31.4 °F 19.4 °F 48% 30.02 in 10.0 mi South 8.1 mph - N/A   Overcast
5:55 PM 37.4 °F - 19.4 °F 48% 30.02 in 10.0 mi Calm Calm - N/A   Overcast
6:15 PM 35.6 °F 32.8 °F 21.2 °F 56% 30.01 in 10.0 mi SW 3.5 mph - N/A   Overcast
6:35 PM 35.6 °F 29.2 °F 23.0 °F 60% 30.01 in 10.0 mi WSW 8.1 mph - N/A   Mostly Cloudy
7:15 PM 33.8 °F 30.8 °F 23.0 °F 65% 30.01 in 10.0 mi SSW 3.5 mph - N/A   Mostly Cloudy
7:35 PM 33.8 °F 27.7 °F 24.8 °F 70% 30.00 in 10.0 mi SSW 6.9 mph - N/A   Mostly Cloudy
7:55 PM 32.0 °F 25.6 °F 24.8 °F 75% 30.00 in 10.0 mi SW 6.9 mph - N/A   Scattered Clouds
8:15 PM 32.0 °F 26.4 °F 26.6 °F 80% 29.99 in 10.0 mi SW 5.8 mph - N/A   Scattered Clouds
8:35 PM 32.0 °F 27.5 °F 26.6 °F 80% 30.00 in 10.0 mi SW 4.6 mph - N/A   Mostly Cloudy
8:55 PM 32.0 °F 24.2 °F 26.6 °F 80% 29.99 in 10.0 mi WSW 9.2 mph - N/A   Overcast
9:15 PM 32.0 °F 27.5 °F 26.6 °F 80% 30.00 in 10.0 mi SSW 4.6 mph - N/A   Overcast
9:35 PM 32.0 °F 26.4 °F 26.6 °F 80% 30.00 in 10.0 mi South 5.8 mph - N/A   Overcast
9:55 PM 32.0 °F 26.4 °F 26.6 °F 80% 29.99 in 10.0 mi SSW 5.8 mph - N/A   Overcast
10:15 PM 32.0 °F 24.2 °F 26.6 °F 80% 29.99 in 10.0 mi South 9.2 mph - N/A   Overcast
10:35 PM 32.0 °F 25.6 °F 26.6 °F 80% 29.98 in 10.0 mi South 6.9 mph - N/A   Overcast
10:55 PM 32.0 °F 25.6 °F 26.6 °F 80% 29.98 in 10.0 mi South 6.9 mph - N/A   Overcast
11:15 PM 32.0 °F 24.8 °F 26.6 °F 80% 29.98 in 10.0 mi South 8.1 mph - N/A   Overcast
11:35 PM 30.2 °F 25.4 °F 26.6 °F 86% 29.98 in 10.0 mi South 4.6 mph - N/A   Overcast
11:55 PM 30.2 °F 26.7 °F 26.6 °F 86% 29.96 in 10.0 mi SSW 3.5 mph - N/A   Overcast